Overview Statistics Trail Chart Weather Telemetry Raw packets
 

This is the latest recevied weather packets stored in our database for station/object IW5CTE-13. If no packets are shown the sender has not sent any weather packets the latest 10 day(s).

<< 1 2 3 4 >>
Time Temp. Humidity Pressure Rain* Wind** Luminosity Snow
1788568235 23.89° C 64% 1018.7 hPa - - - -
1788567637 23.89° C 64% 1018.9 hPa - - - -
1788567036 24.44° C 64% 1018.9 hPa - - - -
1788566434 24.44° C 65% 1019 hPa - - - -
1788565835 24.44° C 64% 1019.1 hPa - - - -
1788565234 24.44° C 65% 1019.1 hPa - - - -
1788564634 24.44° C 64% 1019.2 hPa - - - -
1788564035 24.44° C 64% 1019.2 hPa - - - -
1788563435 24.44° C 64% 1019.3 hPa - - - -
1788562834 24.44° C 64% 1019.3 hPa - - - -
1788562235 25° C 64% 1019.3 hPa - - - -
1788561634 25° C 64% 1019.2 hPa - - - -
1788561034 25° C 63% 1019.3 hPa - - - -
1788560434 25° C 63% 1019.3 hPa - - - -
1788559834 25° C 63% 1019.4 hPa - - - -
1788559235 25.56° C 63% 1019.2 hPa - - - -
1788558635 25.56° C 63% 1019.3 hPa - - - -
1788558034 26.11° C 63% 1019.2 hPa - - - -
1788557434 26.11° C 62% 1019.3 hPa - - - -
1788556835 26.11° C 62% 1019.2 hPa - - - -
1788556234 26.11° C 60% 1019.4 hPa - - - -
1788555634 26.11° C 58% 1019.5 hPa - - - -
1788555034 26.11° C 57% 1019.5 hPa - - - -
1788554440 26.11° C 54% 1019.5 hPa - - - -
1788553834 26.67° C 57% 1019.5 hPa - - - -

* Rain since midnight (hover to see other rain measurements)
** Current wind speed in m/s (hover to see current wind gust speed)